Location: Bodham
(52.9000°N, 1.1667°E)
Time: 14:25:15
(UTC+00:00)

Cosmos 2112 Rocket - Pass Details

Date: 21 October 2025
Orbit: 753 x 782 km, 74.0° (Epoch: 13 November)

Event Time Altitude Azimuth Distance (km) Brightness Sun altitude
Rises 20:55:45 0° 244° (WSW) 3,258 7.6 -36.8°
Reaches altitude 10° 20:58:31 10° 257° (WSW) 2,330 6.9 -37.1°
Enters shadow 21:02:32 26° 307° (NW) 1,504 6.0 -37.6°
